Location: Avoca
(45.7167°N, 74.7000°W)
Time: 20:53:40
(UTC+00:00)

ISS - Visible Passes

Search period start: 04 December 2022 00:00
Search period end: 14 December 2022 00:00
Orbit: 414 x 420 km, 51.6° (Epoch: 04 December)

Date Brightness Start Highest point End Pass type
(mag) Time Alt. Az. Time Alt. Az. Time Alt. Az.
04 Dec -3.9 22:17:06 10° WNW 22:20:27 76° NNE 22:23:39 11° ESE visible
04 Dec -1.1 23:54:30 10° W 23:56:37 18° SW 23:56:37 18° SW visible
05 Dec -1.9 23:05:56 10° WNW 23:08:54 29° SW 23:11:20 13° SSE visible
06 Dec -2.7 22:17:36 10° WNW 22:20:50 46° SW 22:24:02 10° SE visible
07 Dec -0.5 23:07:37 10° WSW 23:08:55 12° SW 23:10:14 10° SSW visible
08 Dec -0.8 22:18:27 10° W 22:20:55 19° SW 22:23:22 10° S visible
